Location: Altamira
(10.5079°N, 66.8544°W)
Time: 19:00:50
(UTC+00:00)

SL-27 R/B - Pass Details

Date: 08 December 2021
Orbit: 415 x 464 km, 74.7° (Epoch: 16 January)

Event Time Altitude Azimuth Distance (km) Brightness Sun altitude
Rises 22:41:43 0° 190° (S) 2,406 6.6 -9.1°
Reaches altitude 10° 22:43:46 10° 188° (S) 1,547 5.5 -9.6°
Maximum altitude 22:47:10 78° 102° (ESE) 457 2.3 -10.3°
Drops below altitude 10° 22:50:37 10° 15° (NNE) 1,576 4.8 -11.1°
Enters shadow 22:51:40 - 15° (NNE) 2,014 5.4 -11.4°
